Terug naar catalogus

TITAN 3C TRANSTAGE DEB

LostHEO
NORAD 26528·DEBRIS·🇺🇸 United States

Gelanceerd Dec 21, 1965 vanaf Cape Canaveral Space Force Station

Loading…

Volgende Passages (komende 24 uur)

TLE

VerouderdSource: Space-Track

Epoch: Mar 8, 2026, 05:17 UTC

1 26528U 65108AP  26067.22045376 -.00000175  00000-0 -37199-2 0  9999
2 26528  27.5724 324.5090 6658673 235.8381 336.4465  2.68043131265738

Volg TITAN 3C TRANSTAGE DEB in realtime met AllMySat

Download on the App Store